www.pogodaiklimat.ru

Погода и климат >> Архив погоды >> Норвегия >> Осло


АРХИВ ПОГОДЫ в Осло

Время (UTC), дата Ветер
(напр.,м/с)
 
Видим.   Явления Облачность Т
(С)
Тd
(С)
f
(%)
Тe
(С)
Тes
(С)
Комфортность P
(гПа)
Po
(гПа)
Тmin
(С)
Tmax
(С)
R
(мм)
R24
(мм)
S
(см)
16 15.03 СВ 2
{5}
н/о н/о +1.6 -0.8 84 -2 -2 по сезону 985.5 973.8
17 15.03 СВ 3
{5}
н/о н/о +1.1 -1.1 85 -3 -3 по сезону 985.8 974.1
18 15.03 С 4
{5}
10 км слаб. дождь 10/6 300 м
[Sc Ac cuf]
+0.8 -1.3 86 -4 -4 прохладно 986.2 974.4 -0.3 +1.7 0.4
19 15.03 С 3
{6}
н/о н/о +0.6 -1.5 86 -4 -4 по сезону 986.7 974.9
20 15.03 С 4
{5}
н/о н/о +0.5 -1.7 85 -5 -5 по сезону 986.9 975.1
21 15.03 СВ 2
{5}
15 км {дождь} 9/4 600 м
[Sc As trans]
+0.3 -2.1 84 -3 -3 по сезону 987.7 975.9
22 15.03 СВ 2
{4}
н/о н/о +0.1 -1.8 87 -4 -4 по сезону 988.1 976.3
23 15.03 С 2
{3}
н/о н/о -0.2 -1.7 90 -4 -4 по сезону 988.6 976.8
00 16.03 СВ 2
{6}
н/о н/о -0.6 -2.0 90 -4 -4 по сезону 989.2 977.4
01 16.03 СВ 1
{2}
н/о н/о -0.6 -2.1 90 -3 -3 тепло 989.8 977.9
02 16.03 СВ 1
{3}
50 км н/о -0.3 -2.0 88 -2 -2 по сезону 990.1 978.3
03 16.03 СВ 1
{2}
н/о н/о -0.2 -1.9 88 -2 -2 по сезону 990.9 979.0
04 16.03 СВ 1
{2}
н/о н/о -0.5 -1.8 91 -3 -3 тепло 991.2 979.3 0.1
05 16.03 СВ 1
{1}
н/о н/о -0.4 -1.3 94 -3 -3 по сезону 991.7 979.8
06 16.03 СВ 1
{3}
н/о н/о -0.3 -1.0 95 -3 -3 по сезону 992.5 980.6 -0.8 +0.8 0.2 24
07 16.03 СВ 1
{2}
н/о н/о +0.1 -1.2 91 -2 -2 по сезону 992.7 980.8
08 16.03 штиль 0
{2}
н/о н/о +0.5 -1.2 88 -1 -1 по сезону 993.3 981.4
09 16.03 штиль 0
{1}
20 км {морось} 10/10 100 м
[St]
+1.7 -1.0 82 +1 +1 по сезону 994.0 982.2
10 16.03 З 2
{3}
14 км осадки н/о +1.4 -1.0 84 -2 -2 по сезону 994.4 982.6
11 16.03 В 1
{3}
н/о н/о +1.6 -1.8 78 0 0 по сезону 994.4 982.6
12 16.03 В 1
{3}
30 км {морось} 10/10 600 м
[Cu Sc]
+2.0 -1.9 75 +1 +1 по сезону 994.5 982.7
13 16.03 В 1
{3}
н/о н/о +2.1 -2.2 73 +1 +1 тепло 994.8 983.0
14 16.03 ЮЗ 1
{2}
н/о н/о +2.1 -2.4 72 +1 +1 по сезону 994.9 983.1
15 16.03 В 2
{4}
>70 км 10/6 600 м
[Sc Ac As]
+2.0 -2.1 74 -1 -1 по сезону 994.4 982.6
16 16.03 В 3
{4}
н/о н/о +1.5 -2.2 76 -3 -3 по сезону 994.6 982.8
17 16.03 В 2
{5}
н/о н/о +1.0 -1.2 85 -2 -2 по сезону 994.3 982.5 0.1
18 16.03 СВ 2
{5}
60 км слаб. снег 10/6 600 м
[Sc Ac As]
+1.1 -2.3 78 -2 -2 по сезону 994.2 982.4 -0.3 +2.4 0.1
19 16.03 СВ 3
{5}
50 км н/о +0.8 -2.2 80 -4 -4 по сезону 994.0 982.2
20 16.03 С 3
{6}
50 км н/о +0.7 -2.2 81 -4 -4 по сезону 993.1 981.3
21 16.03 СВ 5
{8}
60 км 10/6 600 м
[Sc Ac As]
+0.6 -2.4 80 -5 -5 прохладно 992.4 980.6
22 16.03 СВ 6
{9}
5000 м слаб. снег н/о +0.2 -2.0 85 -6 -6 по сезону 991.5 979.7 0.2
23 16.03 СВ 6
{9}
6000 м слаб. ледяной дождь н/о -0.3 -1.7 90 -7 -7 по сезону 990.4 978.5 1
00 17.03 СВ 5
{10}
20 км слаб. дождь со снегом н/о -0.2 -1.9 88 -6 -6 прохладно 989.2 977.4 2
01 17.03 СВ 6
{8}
1900 м слаб. дождь со снегом н/о -0.6 -1.7 92 -8 -8 по сезону 987.4 975.6 0.3
02 17.03 СВ 6
{11}
1800 м слаб. снег н/о -0.3 -1.7 90 -7 -7 по сезону 985.4 973.6 0.6
03 17.03 СВ 6
{11}
1200 м слаб. снег н/о -0.2 -1.5 91 -7 -7 прохладно 983.2 971.4 0.8
04 17.03 СВ 6
{11}
1400 м слаб. снег н/о 0.0 -1.4 90 -7 -7 по сезону 980.9 969.2 1
05 17.03 СВ 8
{14}
600 м снег н/о -0.1 -1.1 93 -8 -8 по сезону 978.6 966.9 2
06 17.03 СВ 6
{17}
900 м снег н/о +0.2 -0.8 93 -7 -7 прохладно 977.2 965.5 -0.6 +1.1 8 32
07 17.03 В 3
{12}
23 км слаб. снег н/о +0.8 -0.2 93 -4 -4 по сезону 976.8 965.2 0.5
08 17.03 В 3
{5}
40 км слаб. ливневой снег н/о +2.1 +0.6 90 -2 -2 по сезону 976.2 964.6 0.8
09 17.03 ЮВ 4
{8}
25 км слаб. ливневой дождь 10/9 100 м
[Cb calv]
+2.9 +1.0 87 -2 -2 по сезону 975.6 964.1 0.3
10 17.03 ЮВ 4
{12}
27 км слаб. ливневой дождь н/о +2.9 +1.0 87 -2 -2 по сезону 974.8 963.3 0.1
11 17.03 ЮВ 4
{9}
10 км дождь н/о +2.9 +1.0 87 -2 -2 по сезону 973.8 962.3 0.7
12 17.03 ЮВ 4
{12}
5000 м слаб. дождь со снегом 10/9 100 м
[Frnb As op]
+1.9 +0.3 89 -3 -3 прохладно 973.2 961.6 4
13 17.03 В 2
{8}
5000 м дождь н/о +1.8 +0.6 92 -2 -2 по сезону 972.7 961.1 2
14 17.03 ЮВ 3
{7}
6000 м слаб. ливневой дождь н/о +3.2 +1.9 91 -1 -1 по сезону 972.4 960.9 0.3
15 17.03 В 4
{7}
18 км слаб. дождь 10/9 100 м
[Frnb As op]
+2.3 +0.7 89 -3 -3 прохладно 972.4 960.9 0.2
16 17.03 В 3
{6}
17 км слаб. дождь н/о +2.9 +1.3 89 -1 -1 по сезону 972.5 961.0
17 17.03 В 3
{6}
7000 м слаб. дождь н/о +2.4 +0.8 89 -2 -2 по сезону 973.1 961.6 0.4
18 17.03 С 4
{8}
20 км дождь 10/10 100 м
[Frnb]
+1.5 +0.2 91 -4 -4 прохладно 974.0 962.4 +0.2 +3.3 8
19 17.03 С 4
{6}
18 км слаб. дождь н/о +1.4 +0.3 92 -4 -4 по сезону 975.1 963.5 0.1
20 17.03 С 5
{7}
19 км слаб. дождь н/о +1.3 0.0 91 -5 -5 по сезону 976.2 964.6 0.2
21 17.03 С 4
{7}
15 км слаб. морось {дождь} 10/10 100 м
[Frnb]
+1.6 +0.1 90 -4 -4 прохладно 977.2 965.6 0.5
22 17.03 С 4
{8}
15 км морось н/о +2.1 +0.3 88 -3 -3 тепло 978.4 966.8
23 17.03 С 5
{8}
11 км морось н/о +2.0 +0.2 88 -4 -4 по сезону 979.7 968.1 0.1
00 18.03 С 7
{13}
22 км слаб. дождь н/о +1.9 -1.0 81 -5 -5 по сезону 981.3 969.7 0.9
01 18.03 С 8
{14}
35 км снежные зёрна н/о +1.6 -2.3 75 -5 -5 тепло 982.9 971.2 0.2
02 18.03
{16}
50 км в посл. час морось н/о +1.1 -2.8 75 984.5 972.8
03 18.03
{16}
50 км н/о +1.0 -3.3 73 986.2 974.5
04 18.03 С 8
{16}
50 км н/о +1.2 -4.2 67 -6 -6 по сезону 987.8 976.0
05 18.03 С 4
{14}
50 км н/о +0.5 -4.7 68 -4 -4 по сезону 989.8 978.0
06 18.03 СВ 3
{16}
>70 км {дождь} 4/3 600 м
[Cu Sc Ac cuf Ci ing]
+0.2 -5.2 67 -4 -4 по сезону 991.3 979.5 +0.1 +2.1 1 25
07 18.03 С 6
{11}
50 км н/о +1.3 -5.1 62 -5 -5 по сезону 992.4 980.6
08 18.03 С 7
{14}
35 км н/о +2.8 -4.6 58 -3 -3 по сезону 994.2 982.4
09 18.03 С 5
{14}
>70 км 4/1 1000 м
[Cu Sc Ac lent Cs]
+3.2 -4.0 59 -2 0 по сезону 995.4 983.6
10 18.03 С 7
{12}
45 км н/о +4.6 -3.4 56 -1 -1 по сезону 996.8 985.1
11 18.03
{14}
45 км н/о +5.4 -3.6 52 998.4 986.7
12 18.03 С 9
{16}
>70 км 3/1 1500 м
[Cu hum Ac As Cs]
+5.7 -4.1 49 0 +1 по сезону 999.7 988.0
13 18.03 С 6
{15}
40 км н/о +6.7 -3.8 47 +3 +3 тепло 1001.0 989.3
14 18.03 С 6
{13}
50 км н/о +6.6 -3.9 47 +3 +3 по сезону 1002.0 990.3
15 18.03 С 5
{12}
>70 км 3/1 1000 м
[Cu hum Ac As]
+6.0 -4.4 47 +2 +3 по сезону 1003.9 992.2
16 18.03 С 5
{10}
50 км н/о +5.1 -7.3 40 +1 +1 тепло 1005.7 993.9
17 18.03 С 3
{7}
50 км н/о +3.9 -6.6 46 +1 +1 по сезону 1007.3 995.4
18 18.03 С 2
{15}
>70 км 1/1 1000 м
[Sc]
+2.3 -7.0 50 -0 -0 по сезону 1009.0 997.0 +0.2 +6.9
19 18.03 СВ 1
{4}
50 км н/о +0.7 -7.0 56 -1 -1 тепло 1010.2 998.2
20 18.03 СВ 2
{3}
50 км н/о -0.5 -5.4 69 -4 -4 по сезону 1011.4 999.3
21 18.03 В 1
{3}
>70 км ясно -1.3 -5.7 72 -3 -3 по сезону 1012.6 1000.4
22 18.03 З 2
{3}
50 км н/о -0.5 -6.2 65 -4 -4 по сезону 1013.2 1001.1
23 18.03 З 2
{4}
50 км н/о -0.2 -6.8 61 -3 -3 по сезону 1014.1 1002.0
00 19.03 ЮЗ 2
{4}
50 км н/о -0.7 -6.9 63 -4 -4 по сезону 1015.0 1002.8
01 19.03 З 1
{5}
50 км н/о -2.2 -6.9 70 -4 -4 по сезону 1015.8 1003.6
02 19.03 Ю 1
{4}
50 км н/о -1.9 -7.1 68 -4 -4 по сезону 1016.6 1004.4
03 19.03 С 1
{4}
50 км н/о -2.8 -7.1 72 -5 -5 по сезону 1017.5 1005.2
04 19.03 СЗ 2
{4}
50 км н/о -3.1 -7.4 72 -7 -7 по сезону 1018.3 1006.0
05 19.03 ЮВ 1
{3}
50 км н/о -3.9 -7.6 75 -6 -6 по сезону 1019.0 1006.6
06 19.03 СВ 2
{5}
>70 км ясно -3.1 -8.1 68 -7 -7 прохладно 1019.7 1007.4 -4.0 +2.3 24
07 19.03 СВ 1
{3}
50 км н/о -0.6 -7.2 61 -2 -2 по сезону 1020.1 1007.9
08 19.03 ЮВ 1
{2}
40 км н/о +1.7 -8.3 47 +1 +1 по сезону 1020.3 1008.2
09 19.03 ЮЗ 2
{3}
>70 км 1/0
[Cs]
+4.6 -8.1 39 +3 +7 по сезону 1020.9 1008.9
10 19.03 ЮЗ 2
{5}
30 км н/о +6.1 -7.4 37 +5 +5 тепло 1020.9 1009.0
11 19.03 ЮЗ 3
{5}
45 км н/о +6.3 -6.9 38 +4 +4 тепло 1020.9 1009.0
12 19.03 З 2
{5}
>70 км 3/0
[Cs]
+7.3 -9.9 28 +6 +11 тепло 1020.8 1008.9
13 19.03 Ю 3
{6}
40 км н/о +7.4 -9.8 28 +5 +5 тепло 1020.6 1008.7
14 19.03 ЮЗ 4
{7}
45 км н/о +7.7 -9.1 29 +5 +5 тепло 1020.5 1008.6
15 19.03 Ю 4
{8}
>70 км 6/0
[Ac As Cs]
+6.9 -8.6 32 +4 +5 по сезону 1020.4 1008.5
16 19.03 Ю 3
{7}
45 км н/о +6.0 -7.9 36 +4 +4 тепло 1020.2 1008.3
17 19.03 Ю 3
{6}
50 км н/о +4.6 -6.6 44 +2 +2 по сезону 1020.0 1008.0
18 19.03 Ю 3
{8}
>70 км 9/0
[Ac As Cs]
+3.8 -5.6 50 +1 +1 по сезону 1020.1 1008.1 -3.4 +7.8
19 19.03 Ю 2
{5}
50 км н/о +3.0 -3.3 63 0 0 тепло 1020.3 1008.2
20 19.03 Ю 2
{5}
50 км н/о +2.5 -2.2 71 -0 -0 по сезону 1019.4 1007.3
21 19.03 Ю 2
{4}
>70 км 9/1 1000 м
[Sc Ac As Cs]
+2.2 -1.6 76 -1 -1 по сезону 1018.7 1006.6
22 19.03 ЮЗ 1
{4}
45 км н/о +2.1 -1.1 79 +1 +1 тепло 1018.3 1006.2
23 19.03 ЮЗ 1
{5}
30 км н/о +2.0 -0.6 83 0 0 тепло 1017.8 1005.7
00 20.03 Ю 2
{5}
30 км ливневой дождь н/о +2.2 -0.2 84 -1 -1 по сезону 1016.8 1004.7
01 20.03 ЮЗ 2
{6}
35 км слаб. ливневой дождь н/о +2.0 -1.2 79 -1 -1 тепло 1016.0 1003.9
02 20.03 Ю 4
{8}
50 км н/о +2.2 -1.9 74 -3 -3 по сезону 1015.4 1003.4
03 20.03 ЮЗ 3
{8}
50 км н/о +2.4 -0.3 82 -2 -2 по сезону 1015.2 1003.2
04 20.03 ЮЗ 2
{5}
40 км н/о +2.7 +0.6 86 -0 -0 тепло 1015.1 1003.1
05 20.03 ЮЗ 2
{4}
26 км н/о +1.9 +0.7 92 -2 -2 по сезону 1014.9 1002.9
06 20.03 ЮЗ 2
{8}
24 км н/о +2.3 +1.3 93 -1 -1 по сезону 1015.3 1003.3 +1.5 +3.8 24
07 20.03 ЮЗ 1
{2}
30 км н/о +4.4 +1.6 82 +3 +3 тепло 1015.6 1003.7
08 20.03 ЮВ 1
{2}
35 км н/о +6.6 +1.7 71 +6 +6 тепло 1016.2 1004.3
09 20.03 ЮЗ 2
{4}
>70 км {снег} 4/3 600 м
[Sc Ac As Cs]
+7.1 +1.6 68 +5 +8 тепло 1016.4 1004.6
10 20.03 ЮЗ 2
{5}
45 км н/о +9.5 +0.4 53 +8 +8 тепло 1016.6 1004.9
11 20.03 ЮЗ 4
{6}
30 км н/о +10.3 -0.8 46 +8 +8 тепло 1016.9 1005.2
12 20.03 З 5
{10}
35 км н/о +11.8 -3.5 34 +10 +10 тепло 1017.3 1005.6
13 20.03 З 6
{11}
35 км н/о +12.0 -4.1 32 +10 +10 тепло 1017.5 1005.8
14 20.03 З 6
{12}
40 км н/о +12.0 -4.1 32 +10 +10 тепло 1018.4 1006.7
15 20.03 З 6
{12}
>70 км 6/0
[Ac lent Cs]
+10.8 -4.4 34 +8 +9 тепло 1018.6 1006.9
16 20.03 З 4
{10}
50 км н/о +10.2 -4.2 36 +8 +8 тепло 1019.3 1007.6
17 20.03 З 4
{7}
50 км н/о +9.9 -4.1 37 +8 +8 тепло 1019.7 1007.9
18 20.03 З 4
{12}
>70 км 4/0
[Ac lent Ci fib]
+8.5 -3.0 44 +6 +6 тепло 1020.2 1008.4 +2.3 +12.2
19 20.03 З 1
{7}
50 км н/о +7.0 -3.2 48 +7 +7 тепло 1020.7 1008.8
20 20.03 З 1
{3}
50 км н/о +5.5 -2.5 56 +5 +5 тепло 1020.9 1008.9
21 20.03 З 1
{3}
45 км н/о +4.1 -2.3 63 +3 +3 по сезону 1020.3 1008.3
22 20.03 ЮЗ 2
{5}
50 км н/о +5.2 -3.1 55 +3 +3 тепло 1019.6 1007.6
23 20.03 ЮЗ 2
{6}
50 км н/о +5.8 -2.8 54 +4 +4 тепло 1019.1 1007.2
00 21.03 ЮЗ 2
{7}
45 км н/о +5.4 -2.4 57 +3 +3 тепло 1018.6 1006.7
01 21.03 СЗ 1
{8}
50 км н/о +5.4 -2.2 58 +5 +5 тепло 1018.0 1006.1
02 21.03 ЮЗ 2
{4}
35 км н/о +5.1 -1.1 64 +3 +3 тепло 1016.8 1004.9
03 21.03 Ю 4
{6}
30 км н/о +5.4 0.0 68 +2 +2 тепло 1015.9 1004.0
04 21.03 Ю 2
{8}
18 км н/о +4.6 +1.6 81 +2 +2 тепло 1015.8 1003.9
05 21.03 Ю 3
{6}
20 км н/о +4.8 +2.7 86 +1 +1 тепло 1015.2 1003.3
06 21.03 Ю 3
{8}
30 км н/о +5.0 +3.3 89 +1 +1 тепло 1014.9 1003.0 +4.0 +8.5 20
07 21.03 ЮЗ 2
{4}
30 км н/о +5.2 +3.4 88 +3 +3 тепло 1015.1 1003.2
08 21.03 Ю 1
{3}
29 км н/о +5.6 +3.8 88 +4 +4 тепло 1015.5 1003.6
09 21.03 ЮЗ 2
{3}
65 км 6/1 200 м
[St Ac As Cs]
+6.5 +4.0 84 +4 +7 тепло 1015.6 1003.7
10 21.03 З 1
{3}
35 км н/о +8.0 +4.6 79 +7 +7 тепло 1016.1 1004.3
11 21.03 З 2
{4}
40 км н/о +9.8 +4.2 68 +8 +8 тепло 1015.9 1004.2
12 21.03 З 2
{5}
65 км 4/1 600 м
[Cu hum Ac trans Cs]
+12.2 +4.4 59 +11 +16 тепло 1016.1 1004.5
13 21.03 ЮЗ 3
{5}
45 км н/о +12.3 +4.1 57 +11 +11 тепло 1016.3 1004.7
14 21.03 З 3
{9}
24 км н/о +14.1 +0.7 40 +13 +13 тепло 1016.5 1004.9
15 21.03 З 6
{16}
65 км 3/1 600 м
[Cu hum]
+13.3 -1.8 35 +11 +12 тепло 1017.5 1005.9
17 21.03 З 3
{8}
50 км н/о +11.4 -2.4 38 +10 +10 тепло 1020.1 1008.4
18 21.03 СЗ 5
{16}
60 км 1/1 600 м
[Cu hum Ac trans Ci fib]
+9.8 -2.8 41 +7 +7 тепло 1022.7 1010.9 +5.0 +14.4
19 21.03 СЗ 4
{8}
50 км н/о +8.8 -5.4 36 +6 +6 тепло 1023.8 1011.9
20 21.03 СЗ 4
{8}
50 км н/о +7.5 -5.5 39 +5 +5 тепло 1025.4 1013.5
21 21.03 С 3
{5}
60 км 1/1 1000 м
[Sc diur, vesp Ac trans]
+4.5 -4.2 53 +2 +2 по сезону 1026.8 1014.7
22 21.03 С 2
{5}
50 км н/о +3.3 -3.9 59 +1 +1 тепло 1028.3 1016.2
23 21.03 СВ 2
{3}
50 км н/о +2.2 -4.5 61 -1 -1 по сезону 1029.3 1017.1
00 22.03 СВ 3
{8}
50 км н/о +0.9 -4.7 66 -3 -3 по сезону 1029.9 1017.6
01 22.03 СВ 1
{4}
50 км н/о 0.0 -4.1 74 -2 -2 тепло 1029.9 1017.6
02 22.03 СВ 3
{4}
50 км н/о -0.7 -4.3 77 -5 -5 по сезону 1029.9 1017.6
03 22.03 СЗ 1
{4}
50 км н/о -1.1 -4.4 78 -3 -3 по сезону 1030.2 1017.8
04 22.03 СЗ 1
{3}
50 км н/о -1.6 -4.3 82 -4 -4 тепло 1030.3 1017.9
05 22.03 СВ 3
{3}
50 км н/о -1.3 -4.2 81 -6 -6 по сезону 1030.1 1017.7
06 22.03 С 1
{4}
65 км 9/0
[Ac As Cs]
-0.6 -4.0 78 -3 -2 по сезону 1030.6 1018.3 -2.0 +9.8 17
08 22.03 СВ 1
{2}
45 км н/о +2.4 -2.9 68 +1 +1 по сезону 1030.7 1018.5
09 22.03 штиль 0
{2}
70 км 9/1 1500 м
[Sc Ac As Cs]
+3.9 -2.9 61 +3 +6 по сезону 1029.8 1017.7
10 22.03 Ю 3
{6}
50 км н/о +5.5 -2.5 56 +3 +3 тепло 1028.8 1016.7
11 22.03 Ю 4
{6}
50 км н/о +6.1 -2.0 56 +3 +3 по сезону 1027.6 1015.6
12 22.03 ЮЗ 4
{6}
70 км 9/3 1000 м
[Sc Ac As Cs]
+5.8 -0.5 64 +2 +4 по сезону 1027.1 1015.1
13 22.03 Ю 6
{10}
35 км н/о +5.3 +2.0 79 0 0 по сезону 1025.7 1013.7
14 22.03 Ю 4
{10}
21 км н/о +4.8 +1.8 81 +1 +1 по сезону 1024.5 1012.5
15 22.03 Ю 6
{12}
14 км н/о +4.5 +2.5 87 -1 -1 прохладно 1023.0 1011.0

 

Местоположение метеостанции Осло (Норвегия): широта 59.94 долгота 10.72 высота над уровнем моря 94 м.

В архиве по умолчанию представлена погода в Осло за последнюю неделю. Архивные данные за месяц целиком и за предыдущие месяцы, начиная с января 2011 года, Вы можете получить, выбрав интересующий диапазон дат из раскрывающегося списка и нажав кнопку "Ввод!".


*Определитесь, кто Вы:
робот инопланетянин человек

Внимание! Время в таблицах - всемирное. Для получения местного времени необходимо прибавить поправку, которая равна 1 ч.

Смотрите также архив погоды в соседних городах и на ближайших метеорологических станциях:

Погода в Тривассхогде (Норвегия) (5 км)
Погода в Бьорнхолте (Норвегия) (12 км)
Погода в Кьеллере (Норвегия) (18 км)
Погода в Аскере (Норвегия) (19 км)
Погода в Хакадале (Норвегия) (21 км)
Погода в Асе (Норвегия) (31 км)
Погода в Осло аэропорту (Норвегия) (36 км)
Погода в Хунефосс-Хойбе (Норвегия) (37 км)
Погода в Драммен Берског (Норвегия) (40 км)
Погода в Коннеруде (Норвегия) (41 км)

Пояснения к столбцам:

Ветер - указаны скорость ветра в м/с - средняя за 10 мин, порывы в срок и между сроками (в фигурных скобках) и направление, откуда дует ветер: С - северный, СВ - северо-восточный, В - восточный, ЮВ - юго-восточный, Ю - южный, ЮЗ - юго-западный, З - западный, СЗ - северо-западный.
Видимость - горизонтальная дальность видимости в метрах или километрах. При видимости от 1 до 10 км при отсутствии осадков обычно наблюдается дымка, при ухудшении видимости до 1 км и менее - туман. В сухую погоду видимость может ухудшаться дымом, пылью или мглою.
Явления - указаны атмосферные явления, наблюдавшиеся в срок или в последний час перед сроком; фигурными скобками обозначены явления, наблюдавшиеся между сроками (за 1-3 часа до срока); квадратными скобками обозначены град или гололедные отложения с указанием их диаметра в мм.
Облачность - указаны через наклонную черту общая и нижняя облачность в баллах и высота нижней границы облаков в метрах; квадратными скобками обозначены формы облаков: Ci - перистые, Cs - перисто-слоистые, Cc - перисто-кучевые, Ac - высококучевые, As - высокослоистые, Sc - слоисто-кучевые, Ns - слоисто-дождевые, Cu - кучевые, Cb - кучево-дождевые. Подробнее классификацию облаков см. в Атласе облаков (PDF).
T - Температура воздуха - температура, измеренная на высоте 2 м над землей.
Td - Температура точки росы - температура, при понижении до которой содержащийся в воздухе водяной пар достигнет насыщения.
f - Относительная влажность воздуха - влажноcть воздуха, измеренная на высоте 2 м над землей.
Te - Эффективная температура - температура, которую ощущает одетый по сезону человек в тени. Характеристика душности погоды. При расчете учитывается влияние влажности воздуха и скорости ветра на теплоощущения человека.
Tes - Эффективная температура на солнце - температура, которую ощущает человек, с поправкой на солнечный нагрев. Характеристика знойности погоды. Зависит от высоты солнца над горизонтом, облачности и скорости ветра. Ночью, в пасмурную погоду, а также при ветре 12 м/с и более поправка равна нулю.
P - Атмосферное давление - приведенное к уровню моря атмосферное давление.
Po - Атмосферное давление - измеренное на уровне метеостанции атмосферное давление.
Tmin - Минимальная температура - минимум температуры воздуха на высоте 2 м над землей.
Tmax - Максимальная температура - максимум температуры воздуха на высоте 2 м над землей.
R - Количество осадков - Количество выпавших осадков за период времени, мм. При наведении курсора мыши на число - период времени, за который выпало указанное количество осадков.
R24 - Количество осадков - Количество выпавших осадков за 24 часа, мм.
S - Снежный покров - Высота снежного покрова, см. При наведении курсора мыши на число - состояние снежного покрова и степень покрытия местности в баллах.